| time (UTC) | temp F | wind direction | speed knots | gust knots | rain 1hr in | rain 24hr in | rain mn in | humidity % | barometer mb |
| 20260508074517 | 61 | 291 | 1.7 | 6.1 | 0.00 | 0.00 | 0.00 | 15 | 1010.6 |
| 20260508073017 | 61 | 256 | 3.5 | 7.8 | 0.00 | 0.00 | 0.00 | 15 | 1010.8 |
| 20260508071515 | 60 | 214 | 6.1 | 9.6 | 0.00 | 0.00 | 0.00 | 16 | 1010.9 |
| 20260508070014 | 58 | 227 | 7.8 | 9.6 | 0.00 | 0.00 | 0.00 | 17 | 1011.1 |
| 20260508064510 | 59 | 243 | 6.1 | 11.3 | 0.00 | 0.00 | 0.00 | 17 | 1011.1 |
| 20260508063005 | 59 | 246 | 2.6 | 7.8 | 0.00 | 0.00 | 0.00 | 16 | 1010.9 |
| 20260508061503 | 60 | 233 | 5.2 | 7.8 | 0.00 | 0.00 | 0.00 | 16 | 1010.8 |
| 20260508060001 | 60 | 222 | 5.2 | 7.8 | 0.00 | 0.00 | 0.00 | 16 | 1011.0 |
| 20260508054642 | 63 | 293 | 3.5 | 7.8 | 0.00 | 0.00 | 0.00 | 14 | 1011.1 |
| 20260508053100 | 64 | 271 | 4.3 | 8.7 | 0.00 | 0.00 | 0.00 | 13 | 1010.9 |
| 20260508051559 | 64 | 285 | 6.1 | 12.2 | 0.00 | 0.00 | 0.00 | 13 | 1010.9 |
| 20260508050059 | 65 | 252 | 3.5 | 9.6 | 0.00 | 0.00 | 0.00 | 12 | 1010.6 |
| 20260508044558 | 63 | 228 | 3.5 | 6.1 | 0.00 | 0.00 | 0.00 | 13 | 1010.8 |
| 20260508043101 | 64 | 236 | 3.5 | 7.8 | 0.00 | 0.00 | 0.00 | 12 | 1010.9 |
| 20260508041556 | 64 | 241 | 3.5 | 5.2 | 0.00 | 0.00 | 0.00 | 12 | 1010.8 |
| 20260508040056 | 64 | 226 | 1.7 | 6.1 | 0.00 | 0.00 | 0.00 | 12 | 1010.8 |
| 20260508034556 | 64 | 230 | 2.6 | 4.3 | 0.00 | 0.00 | 0.00 | 12 | 1010.7 |
| 20260508033055 | 65 | 271 | 2.6 | 6.1 | 0.00 | 0.00 | 0.00 | 11 | 1010.5 |
| 20260508031559 | 66 | 245 | 0.0 | 4.3 | 0.00 | 0.00 | 0.00 | 11 | 1010.3 |
| 20260508024604 | 67 | 210 | 4.3 | 10.4 | 0.00 | 0.00 | 0.00 | 13 | 1009.9 |
| 20260508023152 | 68 | 238 | 1.7 | 8.7 | 0.00 | 0.00 | 0.00 | 11 | 1009.8 |
| 20260508021552 | 69 | 269 | 6.1 | 9.6 | 0.00 | 0.00 | 0.00 | 12 | 1009.7 |
| 20260508014552 | 71 | 310 | 4.3 | 11.3 | 0.00 | 0.00 | 0.00 | 12 | 1009.5 |
| 20260508013050 | 73 | 302 | 4.3 | 12.2 | 0.00 | 0.00 | 0.00 | 10 | 1009.2 |
| 20260508011551 | 74 | 287 | 4.3 | 11.3 | 0.00 | 0.00 | 0.00 | 9 | 1009.1 |
| 20260508010051 | 74 | 250 | 6.1 | 11.3 | 0.00 | 0.00 | 0.00 | 9 | 1009.0 |
| 20260508004548 | 74 | 266 | 5.2 | 13.9 | 0.00 | 0.00 | 0.00 | 9 | 1008.9 |
| 20260508003049 | 74 | 186 | 6.1 | 13.9 | 0.00 | 0.00 | 0.00 | 8 | 1009.0 |
| 20260508001546 | 74 | 217 | 11.3 | 15.6 | 0.00 | 0.00 | 0.00 | 8 | 1009.1 |
| 20260508000044 | 75 | 240 | 5.2 | 13.9 | 0.00 | 0.00 | 0.00 | 8 | 1009.3 |
| 20260507234545 | 75 | 233 | 7.0 | 15.6 | 0.00 | 0.00 | 0.00 | 9 | 1009.3 |
| 20260507233041 | 74 | 221 | 6.1 | 13.0 | 0.00 | 0.00 | 0.00 | 8 | 1009.6 |
| 20260507231544 | 74 | 224 | 8.7 | 15.6 | 0.00 | 0.00 | 0.00 | 9 | 1009.7 |
| 20260507230042 | 75 | 293 | 7.0 | 13.9 | 0.00 | 0.00 | 0.00 | 9 | 1010.0 |
| 20260507224535 | 74 | 181 | 4.3 | 13.0 | 0.00 | 0.00 | 0.00 | 9 | 1010.1 |
| 20260507223033 | 73 | 242 | 4.3 | 13.9 | 0.00 | 0.00 | 0.00 | 10 | 1010.3 |
| 20260507221529 | 73 | 271 | 7.0 | 16.5 | 0.00 | 0.00 | 0.00 | 10 | 1010.5 |
| 20260507220028 | 73 | 279 | 8.7 | 14.8 | 0.00 | 0.00 | 0.00 | 11 | 1010.8 |
| 20260507214525 | 73 | 255 | 7.0 | 11.3 | 0.00 | 0.00 | 0.00 | 11 | 1011.1 |
| 20260507213024 | 72 | 205 | 5.2 | 12.2 | 0.00 | 0.00 | 0.00 | 12 | 1011.5 |
| 20260507211533 | 71 | 203 | 7.0 | 15.6 | 0.00 | 0.00 | 0.00 | 12 | 1011.9 |
| 20260507210017 | 71 | 267 | 2.6 | 13.0 | 0.00 | 0.00 | 0.00 | 13 | 1012.2 |
| 20260507204516 | 70 | 323 | 5.2 | 13.0 | 0.00 | 0.00 | 0.00 | 12 | 1012.6 |
| 20260507203012 | 70 | 260 | 3.5 | 9.6 | 0.00 | 0.00 | 0.00 | 16 | 1012.9 |
| 20260507201511 | 69 | 244 | 4.3 | 12.2 | 0.00 | 0.00 | 0.00 | 16 | 1013.2 |
| 20260507200004 | 67 | 282 | 9.6 | 15.6 | 0.00 | 0.00 | 0.00 | 17 | 1013.4 |
| 20260507194501 | 67 | 316 | 1.7 | 13.0 | 0.00 | 0.00 | 0.00 | 18 | 1013.8 |
| 20260507193059 | 66 | 207 | 7.0 | 11.3 | 0.00 | 0.00 | 0.00 | 19 | 1014.2 |
| 20260507191559 | 66 | 285 | 5.2 | 9.6 | 0.00 | 0.00 | 0.00 | 18 | 1014.4 |
| 20260507190055 | 66 | 218 | 1.7 | 7.8 | 0.00 | 0.00 | 0.00 | 19 | 1014.9 |
| 20260507184551 | 65 | 267 | 2.6 | 7.8 | 0.00 | 0.00 | 0.00 | 19 | 1015.2 |
| 20260507183050 | 62 | 257 | 3.5 | 7.8 | 0.00 | 0.00 | 0.00 | 24 | 1015.4 |
| 20260507181544 | 60 | 316 | 5.2 | 10.4 | 0.00 | 0.00 | 0.00 | 26 | 1015.6 |
| 20260507180052 | 60 | 340 | 5.2 | 13.0 | 0.00 | 0.00 | 0.00 | 28 | 1016.0 |
| 20260507174541 | 59 | 257 | 4.3 | 8.7 | 0.00 | 0.00 | 0.00 | 25 | 1016.2 |
| 20260507173045 | 59 | 22 | 4.3 | 7.8 | 0.00 | 0.00 | 0.00 | 28 | 1016.5 |
| 20260507171544 | 59 | 51 | 3.5 | 7.0 | 0.00 | 0.00 | 0.00 | 27 | 1016.7 |
| 20260507170034 | 57 | 46 | 3.5 | 7.8 | 0.00 | 0.00 | 0.00 | 32 | 1016.9 |
| 20260507164531 | 56 | 37 | 3.5 | 7.8 | 0.00 | 0.00 | 0.00 | 35 | 1017.0 |
| 20260507163032 | 55 | 4 | 6.1 | 9.6 | 0.00 | 0.00 | 0.00 | 40 | 1017.2 |
| 20260507161536 | 54 | 15 | 6.1 | 10.4 | 0.00 | 0.00 | 0.00 | 45 | 1017.5 |
| 20260507160040 | 53 | 64 | 5.2 | 10.4 | 0.00 | 0.00 | 0.00 | 46 | 1017.5 |
| 20260507154523 | 52 | 50 | 7.0 | 10.4 | 0.00 | 0.00 | 0.00 | 48 | 1017.6 |
| 20260507153020 | 51 | 53 | 6.1 | 8.7 | 0.00 | 0.00 | 0.00 | 51 | 1017.7 |
| 20260507151519 | 50 | 43 | 5.2 | 7.8 | 0.00 | 0.00 | 0.00 | 56 | 1017.9 |
| 20260507150023 | 48 | 47 | 5.2 | 7.8 | 0.00 | 0.00 | 0.00 | 61 | 1018.1 |
| 20260507144527 | 46 | 37 | 4.3 | 9.6 | 0.00 | 0.00 | 0.00 | 66 | 1018.1 |
| 20260507143017 | 44 | 20 | 5.2 | 9.6 | 0.00 | 0.00 | 0.00 | 70 | 1018.4 |
| 20260507141520 | 42 | 43 | 7.0 | 9.6 | 0.00 | 0.00 | 0.00 | 72 | 1018.3 |
| 20260507140015 | 41 | 44 | 7.8 | 11.3 | 0.00 | 0.00 | 0.00 | 74 | 1018.4 |
| 20260507134514 | 41 | 44 | 7.8 | 10.4 | 0.00 | 0.00 | 0.00 | 74 | 1018.4 |
| 20260507133014 | 40 | 53 | 6.1 | 8.7 | 0.00 | 0.00 | 0.00 | 74 | 1018.3 |
| 20260507131512 | 40 | 79 | 3.5 | 8.7 | 0.00 | 0.00 | 0.00 | 76 | 1018.2 |
| 20260507130022 | 39 | 41 | 4.3 | 7.0 | 0.00 | 0.00 | 0.00 | 78 | 1018.1 |
| 20260507124508 | 38 | 63 | 3.5 | 6.1 | 0.00 | 0.00 | 0.00 | 80 | 1018.0 |
| 20260507123006 | 37 | 53 | 3.5 | 7.0 | 0.00 | 0.00 | 0.00 | 81 | 1017.9 |
| 20260507121506 | 37 | 51 | 3.5 | 7.0 | 0.00 | 0.00 | 0.00 | 81 | 1017.6 |
| 20260507120004 | 38 | 68 | 5.2 | 7.8 | 0.00 | 0.00 | 0.00 | 80 | 1017.6 |
| 20260507114501 | 38 | 63 | 5.2 | 7.8 | 0.00 | 0.00 | 0.00 | 79 | 1017.6 |
| 20260507113101 | 38 | 64 | 5.2 | 7.0 | 0.00 | 0.00 | 0.00 | 79 | 1017.5 |
| 20260507111558 | 38 | 66 | 3.5 | 7.8 | 0.00 | 0.00 | 0.00 | 76 | 1017.5 |
| 20260507110057 | 38 | 63 | 4.3 | 7.8 | 0.00 | 0.00 | 0.00 | 71 | 1017.5 |
| 20260507104558 | 38 | 95 | 0.0 | 3.5 | 0.00 | 0.00 | 0.00 | 72 | 1017.5 |
| 20260507103054 | 39 | 92 | 4.3 | 7.8 | 0.00 | 0.00 | 0.00 | 72 | 1017.4 |
| 20260507101556 | 38 | 54 | 5.2 | 7.0 | 0.00 | 0.00 | 0.00 | 68 | 1017.3 |
| 20260507100048 | 38 | 76 | 0.0 | 4.3 | 0.00 | 0.00 | 0.00 | 65 | 1017.1 |
| 20260507094545 | 39 | 60 | 0.9 | 4.3 | 0.00 | 0.00 | 0.00 | 65 | 1016.9 |
| 20260507093043 | 39 | 81 | 0.0 | 0.0 | 0.00 | 0.00 | 0.00 | 69 | 1016.9 |
| 20260507091543 | 40 | 72 | 0.0 | 0.0 | 0.00 | 0.00 | 0.00 | 68 | 1016.9 |
| 20260507090037 | 40 | 79 | 0.0 | 0.0 | 0.00 | 0.00 | 0.00 | 67 | 1016.8 |
| 20260507084535 | 41 | 88 | 3.5 | 7.8 | 0.00 | 0.00 | 0.00 | 66 | 1016.9 |
| 20260507083030 | 43 | 77 | 3.5 | 10.4 | 0.00 | 0.00 | 0.00 | 61 | 1016.9 |
| 20260507081524 | 45 | 78 | 5.2 | 7.8 | 0.00 | 0.00 | 0.00 | 50 | 1016.7 |
| 20260507080023 | 46 | 72 | 3.5 | 6.1 | 0.00 | 0.00 | 0.00 | 48 | 1016.6 |